This is the latest recevied weather packets stored in our database for station/object KD5UMO-1. If no packets are shown the sender has not sent any weather packets the latest 10 day(s).
| Time | Temp. | Humidity | Pressure | Rain* | Wind** | Luminosity | Snow |
|---|---|---|---|---|---|---|---|
| 1777758438 | 25° C | 33% | 1019.3 hPa | 0 mm | - | 493 W/m² | - |
| 1777758135 | 25.56° C | 33% | 1019.5 hPa | 0 mm | - | 529 W/m² | - |
| 1777757833 | 25° C | 33% | 1019.5 hPa | 0 mm | - | 539 W/m² | - |
| 1777757530 | 25.56° C | 34% | 1019.6 hPa | 0 mm | - | 566 W/m² | - |
| 1777757228 | 25° C | 34% | 1019.6 hPa | 0 mm | - | 582 W/m² | - |
| 1777756920 | 25° C | 33% | 1019.7 hPa | 0 mm | - | 597 W/m² | - |
| 1777756616 | 25.56° C | 32% | 1019.9 hPa | 0 mm | - | 612 W/m² | - |
| 1777756314 | 25° C | 33% | 1019.8 hPa | 0 mm | - | 624 W/m² | - |
| 1777756010 | 25° C | 34% | 1020 hPa | 0 mm | - | 636 W/m² | - |
| 1777755707 | 25° C | 32% | 1019.8 hPa | 0 mm | - | 650 W/m² | - |
| 1777755404 | 25° C | 34% | 1019.9 hPa | 0 mm | - | 663 W/m² | - |
| 1777755101 | 25° C | 32% | 1020.2 hPa | 0 mm | - | 678 W/m² | - |
| 1777754798 | 25° C | 35% | 1020 hPa | 0 mm | - | 692 W/m² | - |
| 1777754495 | 25° C | 32% | 1020.1 hPa | 0 mm | - | 702 W/m² | - |
| 1777754192 | 24.44° C | 32% | 1020.2 hPa | 0 mm | - | 715 W/m² | - |
| 1777753890 | 25° C | 35% | 1020.4 hPa | 0 mm | - | 727 W/m² | - |
| 1777753584 | 25° C | 34% | 1020.2 hPa | 0 mm | - | 734 W/m² | - |
| 1777753283 | 25° C | 34% | 1020.5 hPa | 0 mm | - | 743 W/m² | - |
| 1777752979 | 23.89° C | 35% | 1020.4 hPa | 0 mm | - | 757 W/m² | - |
| 1777752676 | 23.89° C | 36% | 1020.4 hPa | 0 mm | - | 768 W/m² | - |
| 1777752372 | 23.89° C | 35% | 1020.5 hPa | 0 mm | - | 778 W/m² | - |
| 1777752070 | 24.44° C | 35% | 1020.6 hPa | 0 mm | - | 799 W/m² | - |
| 1777751768 | 25° C | 33% | 1020.7 hPa | 0 mm | - | 800 W/m² | - |
| 1777751463 | 24.44° C | 33% | 1020.7 hPa | 0 mm | - | 810 W/m² | - |
| 1777751160 | 23.89° C | 34% | 1020.8 hPa | 0 mm | - | 815 W/m² | - |
* Rain latest hour (hover to see other rain measurements)
** Current wind speed in m/s (hover to see current wind gust speed)